Flag for Switzerland Weather past 2 weeks in Geneva, Geneva, Switzerland

Now
61 °F

Refreshingly cool.


Feels Like: 61 °F
Forecast: 33 / 61 °F
Wind: 7 mph from Northeast

Location: Geneve-Cointrin


UV Index: 3 (Moderate)

Visibility: N/A


Pressure: 30.01 "Hg

Humidity: 30%

Dew point: 29 °F

Location of GenevaLocation

Historic Weather in Geneva

°F

Geneva temperature yesterday

Maximum temperature yesterday: 57 °F (at 6:00 PM)
Minimum temperature yesterday: 40 °F (at 6:00 AM)
Average temperature yesterday: 48 °F

Past Weeks' High & Low Weather Summary

 TemperatureHumidityPressure
High74 °F (Apr 7, 5:00 PM)93% (Apr 8, 8:00 AM)30.32 "Hg (Apr 8, 8:00 AM)
Low35 °F (Apr 17, 7:00 AM)23% (Apr 15, 3:00 PM)29.63 "Hg (Apr 3, 6:00 PM)
Average55 °F60%30.04 "Hg
* Reported Apr 2 6:00 PM — Apr 17 6:00 PM, Geneva, Weather by CustomWeather, © 2014

Note: Actual official high and low records may vary slightly from our data, if they occured in-between our weather recording intervals... More about our weather records

Advertising

Historic Weather Conditions — Data for Previous 24 hours

 ConditionsComfort  
Time TempWeatherWind HumidityBarometerVisibility
6:00 PM
Apr 17
61 °FRefreshingly cool.7 mph30%30.01 "HgN/A
5:00 PM60 °FScattered clouds.7 mph35%30.03 "Hg37 mi
4:00 PM59 °FRefreshingly cool.7 mph28%30.05 "HgN/A
3:00 PM57 °FRefreshingly cool.5 mph41%30.08 "HgN/A
2:00 PM55 °FPassing clouds.8 mph43%30.11 "Hg37 mi
1:00 PM54 °FCool.6 mph44%30.14 "HgN/A
12:00 PM51 °FCool.9 mph46%30.17 "HgN/A
10:00 AM46 °FCool.10 mph55%30.22 "HgN/A
9:00 AM44 °FQuite cool.5 mph61%30.23 "HgN/A
8:00 AM39 °FPassing clouds.2 mph69%30.24 "Hg43 mi
7:00 AM35 °FChilly.2 mph83%30.25 "HgN/A
6:00 AM36 °FChilly.3 mph79%30.24 "HgN/A
5:00 AM38 °FClear.2 mph73%30.25 "Hg31 mi
4:00 AM40 °FQuite cool.2 mph65%30.25 "HgN/A
3:00 AM40 °FQuite cool.1 mph63%30.25 "HgN/A
2:00 AM43 °FClear.5 mph54%30.25 "Hg31 mi
1:00 AM45 °FCool.8 mph49%30.24 "HgN/A
12:00 AM47 °FCool.8 mph47%30.24 "HgN/A
11:00 PM
Apr 16
48 °FClear.13 mph45%30.23 "Hg31 mi
10:00 PM50 °FCool.13 mph40%30.22 "HgN/A
9:00 PM51 °FCool.10 mph37%30.21 "HgN/A
8:00 PM53 °FSunny.12 mph36%30.19 "Hg31 mi
Weather by CustomWeather, © 2014

See weather overview